Cosmos 1892 Rocket - Orbit

View from above orbital plane
View from above orbital plane
View from above satellite
View from above satellite

Ground track
Ground track

The orbit data is extracted from the following two-line orbital elements,

1 18422U 87088B   13142.12934789  .00000328  00000-0  38265-4 0  9364
2 18422 082.5108 129.5769 0018298 295.7827 111.9040 14.82043079381488
Epoch (UTC): 22 May 2013 03:06:15
Eccentricity: 0.0018298
inclination: 82.5108°
perigee height: 610 km
apogee height: 635 km
right ascension of ascending node: 129.5769°
argument of perigee: 295.7827°
revolutions per day: 14.82043079
mean anomaly at epoch: 111.9040°
orbit number at epoch: 38148

The dashed part of the orbit path shows where the satellite is in the earth's shadow,  

Developed and maintained by Chris Peat, Heavens-Above GmbH. Please read the updated FAQ before sending e-mail. Imprint. DLR